West Yellowstone, MT

8:53 AM MST on February 24, 2017 (GMT -0700)
Yellowstone

Weather History for KWYS - January, 2013

Change the Weather History Date:

Monday, January 14, 2013

  Actual Average Record
Temperature  
Mean Temperature -16 °F -  
Max Temperature 0 °F 25 °F 30 °F (2011)
Min Temperature -32 °F 8 °F -32 °F (2013)
Degree Days  
Heating Degree Days 81    
Moisture  
Dew Point -    
Average Humidity    
Maximum Humidity    
Minimum Humidity    
Precipitation  
Precipitation 0.00 in - - ()
Sea Level Pressure  
Sea Level Pressure 30.07 in    
Wind  
Wind Speed 3 mph (SW)    
Max Wind Speed 18 mph    
Max Gust Speed 21 mph    
Visibility 7 miles    
Events Snow    
Averages and records for this station are not official NWS values.
T = Trace of Precipitation, MM = Missing Value Source: NWS Daily Summary

Daily Weather History Graph

Daily Weather History Graph

Search for Another Location

Airport or City:

Trip Planner

Search our weather history database for the weather conditions in past years. The results will help you decide how hot, cold, wet, or windy it might be!

Date:

Astronomy

Jan. 14, 2013 Rise Set
Actual Time 7:58 AM MST 5:09 PM MST
Civil Twilight 7:25 AM MST 5:41 PM MST
Nautical Twilight 6:49 AM MST 6:18 PM MST
Astronomical Twilight 6:14 AM MST 6:53 PM MST
Moon 9:23 AM MST (1/14) 9:10 PM MST (1/14)
Length of Visible Light 10h 15m
Length of Day
9h 10m
Waxing Crescent, 12% of the Moon is Illuminated
Jan 14
Waxing Crescent
Jan 18
First Quarter
Jan 26
Full
Feb 3
Last Quarter
Feb 10
New

Hourly Weather History & Observations

Time (MST) Temp. Windchill Dew Point Humidity Pressure Visibility Wind Dir Wind Speed Gust Speed Precip Events Conditions
12:05 AM -7.6 °F - - N/A% 30.00 in 9.0 mi Calm Calm - N/A Snow Light Snow
12:25 AM -7.6 °F - - N/A% 30.01 in 4.0 mi Calm Calm - N/A Snow Light Snow
12:45 AM -9.4 °F - - N/A% 30.00 in 5.0 mi Calm Calm - N/A Snow Light Snow
1:05 AM -9.4 °F -18.6 °F - N/A% 30.01 in 10.0 mi West 3.5 mph - N/A   Overcast
1:25 AM -9.4 °F - - N/A% 30.01 in 10.0 mi Calm Calm - N/A   Overcast
1:45 AM -9.4 °F - - N/A% 30.01 in 10.0 mi Calm Calm - N/A   Overcast
2:05 AM -13.0 °F -22.7 °F - N/A% 30.02 in 9.0 mi NE 3.5 mph - N/A Snow Light Snow
2:25 AM -13.0 °F - - N/A% 30.03 in 10.0 mi Calm Calm - N/A   Scattered Clouds
3:05 AM -20.2 °F - - N/A% 30.04 in 10.0 mi Calm Calm - N/A   Clear
3:25 AM -20.2 °F - - N/A% 30.04 in 10.0 mi Calm Calm - N/A   Clear
3:45 AM -22.0 °F - - N/A% 30.04 in 10.0 mi Calm Calm - N/A   Clear
4:05 AM -23.8 °F - - N/A% 30.04 in 10.0 mi Calm Calm - N/A   Clear
4:25 AM -25.6 °F - - N/A% 30.04 in 10.0 mi Calm Calm - N/A   Clear
4:45 AM -27.4 °F - - N/A% 30.04 in 10.0 mi Calm Calm - N/A   Clear
5:05 AM -29.2 °F - - N/A% 30.04 in 10.0 mi Calm Calm - N/A   Clear
5:25 AM -29.2 °F - - N/A% 30.05 in 10.0 mi Calm Calm - N/A   Clear
5:45 AM -31.0 °F - - N/A% 30.05 in 10.0 mi Calm Calm - N/A   Clear
6:05 AM -31.0 °F - - N/A% 30.05 in 10.0 mi Calm Calm - N/A   Clear
6:25 AM -31.0 °F - - N/A% 30.05 in 10.0 mi Calm Calm - N/A   Mostly Cloudy
6:45 AM -31.0 °F - - N/A% 30.06 in 10.0 mi Calm Calm - N/A   Overcast
7:05 AM -32.8 °F - - N/A% 30.06 in 10.0 mi Calm Calm - N/A   Overcast
7:25 AM -31.0 °F - - N/A% 30.08 in 10.0 mi Calm Calm - N/A   Overcast
7:45 AM -27.4 °F - - N/A% 30.08 in 10.0 mi Calm Calm - N/A   Overcast
8:05 AM -25.6 °F - - N/A% 30.08 in 10.0 mi Calm Calm - N/A   Overcast
8:25 AM -22.0 °F - - N/A% 30.08 in 8.0 mi Calm Calm - N/A   Overcast
8:45 AM -20.2 °F - - N/A% 30.08 in 7.0 mi Calm Calm - N/A   Overcast
9:05 AM -18.4 °F - - N/A% 30.08 in 9.0 mi Calm Calm - N/A   Overcast
9:25 AM -16.6 °F - - N/A% 30.08 in 9.0 mi Calm Calm - N/A   Overcast
9:45 AM -16.6 °F - - N/A% 30.10 in 9.0 mi Calm Calm - N/A   Overcast
10:05 AM -13.0 °F - - N/A% 30.09 in 7.0 mi Calm Calm - N/A   Overcast
10:25 AM - - - N/A% 30.08 in 7.0 mi Calm Calm - N/A   Overcast
10:45 AM -11.2 °F -20.6 °F - N/A% 30.09 in 7.0 mi NE 3.5 mph - N/A   Overcast
11:05 AM -9.4 °F -18.6 °F - N/A% 30.08 in 8.0 mi NE 3.5 mph - N/A   Overcast
11:25 AM -7.6 °F -20.6 °F - N/A% 30.08 in 9.0 mi NE 5.8 mph - N/A   Overcast
11:45 AM -7.6 °F -18.8 °F - N/A% 30.06 in 10.0 mi ENE 4.6 mph - N/A   Overcast
12:05 PM -5.8 °F - - N/A% 30.05 in 10.0 mi Calm Calm - N/A   Overcast
12:25 PM -2.2 °F -19.9 °F - N/A% 30.04 in 10.0 mi SW 11.5 mph 16.1 mph N/A   Overcast
12:45 PM -0.4 °F -19.2 °F - N/A% 30.03 in 7.0 mi SSW 13.8 mph 20.7 mph N/A   Mostly Cloudy
1:05 PM -0.4 °F -15.7 °F - N/A% 30.02 in 10.0 mi SSW 9.2 mph - N/A   Mostly Cloudy
1:25 PM -0.4 °F -17.6 °F - N/A% 30.01 in 10.0 mi SSW 11.5 mph 17.3 mph N/A   Mostly Cloudy
1:45 PM -0.4 °F -18.4 °F - N/A% 30.01 in 5.0 mi SSW 12.7 mph - N/A   Haze
2:05 PM -0.4 °F -18.4 °F - N/A% 30.02 in 8.0 mi SSW 12.7 mph - N/A   Partly Cloudy
2:25 PM -0.4 °F -19.2 °F - N/A% 30.02 in 6.0 mi SSW 13.8 mph 17.3 mph N/A   Haze
2:45 PM -0.4 °F -17.6 °F - N/A% 30.04 in 3.0 mi SSW 11.5 mph - N/A   Partly Cloudy
3:05 PM -0.4 °F -17.6 °F - N/A% 30.05 in 4.0 mi SSW 11.5 mph - N/A   Haze
3:25 PM -0.4 °F -17.6 °F - N/A% 30.06 in 2.0 mi SSW 11.5 mph - N/A Snow Light Snow
3:45 PM -0.4 °F -19.9 °F - N/A% 30.06 in 1.5 mi SSW 15.0 mph - N/A   Clear
4:05 PM -2.2 °F -24.1 °F - N/A% 30.06 in 5.0 mi SSW 18.4 mph - N/A   Haze
4:25 PM -2.2 °F -20.7 °F - N/A% 30.06 in 4.0 mi SW 12.7 mph 19.6 mph N/A   Haze
4:45 PM -2.2 °F -20.7 °F - N/A% 30.08 in 2.5 mi SW 12.7 mph 20.7 mph N/A Snow Light Snow
5:05 PM -2.2 °F -20.7 °F - N/A% 30.08 in 2.5 mi SW 12.7 mph 18.4 mph N/A Snow Light Snow
5:25 PM -2.2 °F -19.9 °F - N/A% 30.09 in 2.0 mi SW 11.5 mph 18.4 mph N/A Snow Light Snow
5:45 PM -2.2 °F -18.9 °F - N/A% 30.09 in 3.0 mi SW 10.4 mph 17.3 mph N/A Snow Light Snow
6:05 PM -2.2 °F -16.8 °F - N/A% 30.09 in 6.0 mi SW 8.1 mph - N/A   Haze
6:25 PM -2.2 °F -18.0 °F - N/A% 30.09 in 2.5 mi SW 9.2 mph 16.1 mph N/A Snow Light Snow
6:45 PM -2.2 °F -15.6 °F - N/A% 30.09 in 5.0 mi SW 6.9 mph - N/A   Haze
7:05 PM -2.2 °F -12.5 °F - N/A% 30.10 in 9.0 mi SW 4.6 mph - N/A   Overcast
7:25 PM -2.2 °F -15.6 °F - N/A% 30.10 in 6.0 mi WSW 6.9 mph - N/A Snow Light Snow
7:45 PM -2.2 °F -14.2 °F - N/A% 30.11 in 10.0 mi WSW 5.8 mph - N/A   Overcast
8:05 PM -2.2 °F -12.5 °F - N/A% 30.11 in 5.0 mi SW 4.6 mph - N/A   Haze
8:25 PM -2.2 °F -16.8 °F - N/A% 30.12 in 4.0 mi SW 8.1 mph - N/A Snow Light Snow
8:45 PM -2.2 °F -15.6 °F - N/A% 30.14 in 4.0 mi SSW 6.9 mph - N/A Snow Light Snow
9:05 PM -2.2 °F -18.9 °F - N/A% 30.13 in 3.0 mi SSW 10.4 mph - N/A Snow Light Snow
9:25 PM -2.2 °F -15.6 °F - N/A% 30.14 in 3.0 mi SSW 6.9 mph - N/A Snow Light Snow
9:45 PM -2.2 °F -14.2 °F - N/A% 30.15 in 3.0 mi SSW 5.8 mph - N/A Snow Light Snow
10:05 PM -2.2 °F -15.6 °F - N/A% 30.15 in 3.0 mi SSW 6.9 mph - N/A Snow Light Snow
10:25 PM -2.2 °F -14.2 °F - N/A% 30.14 in 4.0 mi SSW 5.8 mph - N/A Snow Light Snow
10:45 PM -2.2 °F - - N/A% 30.15 in 7.0 mi Calm Calm - N/A Snow Light Snow
11:05 PM -4.0 °F - - N/A% 30.15 in 8.0 mi Calm Calm - N/A   Overcast
11:25 PM -4.0 °F - - N/A% 30.16 in 9.0 mi Calm Calm - N/A   Overcast
11:45 PM -5.8 °F -14.5 °F - N/A% 30.17 in 10.0 mi SSW 3.5 mph - N/A   Overcast